Simultaneous Nadir Overpasses (SNOs) Predictions

Prediction of SNOs between AQUA and NOAA-19 Satellite Orbit:

Table of predicted SNOs for the next 14.0 days since TLE Epoch: 6/6/2015
Index Date (AQUA) Time (AQUA) Lat,Lon (AQUA) SZA (AQUA ) Date (NOAA-19) Time (NOAA-19) Lat,Lon (NOAA-19) SZA (NOAA-19 ) Distance(km) Time Diff (sec)
1 06/06/2015 03:55:34 -79.96, -88.87 121.28 06/06/2015 03:55:50 -79.96, -88.95 121.28 1.67 16
2 06/08/2015 08:39:55 -80.05,-160.68 121.34 06/08/2015 08:39:15 -80.05,-160.81 121.31 2.57 40
3 06/08/2015 09:29:18 79.91, 8.08 58.44 06/08/2015 09:30:16 79.90, 8.15 58.40 1.68 58
4 06/10/2015 14:13:38 79.98, -63.54 58.37 06/10/2015 14:13:40 79.97, -63.38 58.35 3.27 2
5 06/12/2015 18:57:58 80.06,-135.26 58.36 06/12/2015 18:57:05 80.06,-135.28 58.39 0.61 53
6 06/12/2015 19:47:21 -79.94, 33.31 121.83 06/12/2015 19:47:56 -79.94, 33.44 121.86 2.77 35
7 06/15/2015 00:31:41 -80.03, -38.49 121.79 06/15/2015 00:31:21 -80.03, -38.48 121.78 0.21 20
8 06/17/2015 05:16:33 -81.07,-120.84 119.90 06/17/2015 05:15:19 -80.77,-121.53 119.99 34.93 74
9 06/17/2015 06:05:23 80.00, 58.36 58.08 06/17/2015 06:05:47 80.00, 58.26 58.09 2.03 24
10 06/19/2015 10:49:42 80.07, -13.35 58.17 06/19/2015 10:49:11 80.08, -13.46 58.20 2.32 31




NCC Satellite Simultaneous Nadir Overpasses (SNOs) Prediction Service
